Zanesville, OH

1:46 AM EDT on April 26, 2017 (GMT -0400)
Zanesville Municipal

Weather History for KZZV - May, 2014

Change the Weather History Date:

Tuesday, May 13, 2014

  Actual Average Record
Temperature  
Mean Temperature 76 °F 60 °F  
Max Temperature 87 °F 71 °F 87 °F (1956)
Min Temperature 64 °F 48 °F 29 °F (1996)
Degree Days  
Heating Degree Days 0 6  
Month to date heating degree days 70 100  
Since 1 July heating degree days 5894 5457  
Cooling Degree Days 11 1  
Month to date cooling degree days 32 9  
Year to date cooling degree days 37 18  
Growing Degree Days 25 (Base 50)    
Moisture  
Dew Point 63 °F    
Average Humidity 68    
Maximum Humidity 93    
Minimum Humidity 42    
Precipitation  
Precipitation 0.01 in 0.13 in 1.03 in (2002)
Month to date precipitation 1.76 1.66  
Year to date precipitation 12.56 12.93  
Sea Level Pressure  
Sea Level Pressure 30.04 in    
Wind  
Wind Speed 6 mph (SW)    
Max Wind Speed 18 mph    
Max Gust Speed 22 mph    
Visibility 8 miles    
Events      
T = Trace of Precipitation, MM = Missing Value Source: NWS Daily Summary

Daily Weather History Graph

Daily Weather History Graph

Search for Another Location

Airport or City:

Trip Planner

Search our weather history database for the weather conditions in past years. The results will help you decide how hot, cold, wet, or windy it might be!

Date:

Astronomy

May. 13, 2014 Rise Set
Actual Time 6:14 AM EDT 8:34 PM EDT
Civil Twilight 5:43 AM EDT 9:04 PM EDT
Nautical Twilight 5:06 AM EDT 9:42 PM EDT
Astronomical Twilight 4:25 AM EDT 10:23 PM EDT
Moon 7:34 PM EDT (5/13) 5:29 AM EDT (5/13)
Length of Visible Light 15h 20m
Length of Day
14h 19m
Waxing Gibbous, 98% of the Moon is Illuminated
May 13
Waxing Gibbous
May 14
Full
May 21
Last Quarter
May 28
New
Jun 5
First Quarter

Hourly Weather History & Observations

Time (EDT) Temp. Heat Index Dew Point Humidity Pressure Visibility Wind Dir Wind Speed Gust Speed Precip Events Conditions
12:53 AM 69.1 °F - 66.0 °F 90% 30.04 in 9.0 mi SSW 4.6 mph - N/A   Clear
2:28 AM 64.9 °F - 64.0 °F 97% 30.07 in 2.5 mi Calm Calm - N/A   Clear
2:36 AM 66.0 °F - 64.0 °F 93% 30.07 in 4.0 mi Calm Calm - N/A   Clear
2:53 AM 66.0 °F - 64.0 °F 93% 30.04 in 5.0 mi SSE 5.8 mph - N/A   Clear
3:53 AM 64.9 °F - 63.0 °F 93% 30.03 in 4.0 mi SSW 4.6 mph - N/A   Clear
4:53 AM 64.9 °F - 63.0 °F 93% 30.02 in 4.0 mi SSW 3.5 mph - N/A   Clear
5:53 AM 64.0 °F - 62.1 °F 93% 30.02 in 3.0 mi Calm Calm - N/A   Clear
6:53 AM 64.0 °F - 63.0 °F 96% 30.05 in 3.0 mi Calm Calm - N/A   Clear
7:53 AM 70.0 °F - 64.9 °F 84% 30.06 in 10.0 mi South 5.8 mph - N/A   Clear
9:53 AM 78.1 °F - 66.0 °F 66% 30.06 in 10.0 mi South 9.2 mph - N/A   Clear
10:53 AM 80.1 °F 81.9 °F 64.9 °F 60% 30.07 in 10.0 mi WSW 10.4 mph - N/A   Clear
12:53 PM 82.9 °F 83.7 °F 62.1 °F 49% 30.06 in 10.0 mi SW 5.8 mph - N/A   Clear
1:53 PM 82.9 °F 83.7 °F 62.1 °F 49% 30.05 in 10.0 mi WSW 6.9 mph - N/A   Mostly Cloudy
2:53 PM 84.9 °F 85.9 °F 63.0 °F 48% 30.03 in 10.0 mi SSW 13.8 mph - N/A   Partly Cloudy
3:53 PM 86.0 °F 86.3 °F 62.1 °F 44% 30.01 in 10.0 mi WSW 10.4 mph - N/A   Partly Cloudy
4:53 PM 86.0 °F 86.1 °F 61.0 °F 43% 30.00 in 10.0 mi SW 10.4 mph - N/A   Partly Cloudy
5:53 PM 86.0 °F 86.1 °F 61.0 °F 43% 29.99 in 10.0 mi WSW 11.5 mph 19.6 mph N/A   Partly Cloudy
6:53 PM 84.0 °F 84.4 °F 61.0 °F 46% 29.99 in 10.0 mi SW 6.9 mph - N/A   Partly Cloudy
7:53 PM 82.0 °F 82.7 °F 61.0 °F 49% 30.00 in 10.0 mi SW 4.6 mph - N/A   Partly Cloudy
8:53 PM 71.1 °F - 63.0 °F 75% 30.03 in 10.0 mi WSW 4.6 mph - 0.01 in   Partly Cloudy
9:53 PM 66.9 °F - 64.9 °F 93% 30.03 in 10.0 mi South 3.5 mph - N/A   Clear
10:53 PM 66.9 °F - 64.0 °F 90% 30.05 in 10.0 mi Calm Calm - N/A   Mostly Cloudy
11:53 PM 68.0 °F - 64.0 °F 87% 30.05 in 10.0 mi Calm Calm - N/A   Partly Cloudy